Terminal Aerodrome Forecast
Issued by NWS

Home | Current Version | Previous Version | Graphics & Text | Print | Product List | Glossary On
Versions: 1 2 3 4 5 6 7 8 9 10 11 12 13 14
315
FTUS43 KICT 112257 AAC
TAFSLN
TAF AMD
KSLN 112257Z 1123/1218 VRB05KT P6SM SCT250
     FM120400 24005KT P6SM SCT250
     FM120900 30011KT P6SM SCT020
     FM121100 34012KT P6SM SCT025=

USA.gov is the U.S. government's official web portal to all federal, state and local government web resources and services.